SL-12 DEB, 41692

Orbit data source: Space-Track

SL-12 DEB, 41692 is space debris in HEO originally from a launch on Fri, 26 Oct 2007 UTC launched from the Tyuratam Missile And Space Complex (TTMTR). Debris objects in space refer to the collection of defunct objects orbiting the Earth. Examples of debris include non-operational satellites, rocket bodies, and fragments generated from explosions, collisions, or faulty payload assembly.

Loading next visibility...
Identifier
41692, 2007-052Z
Orbit
HEO
Country
Flag of CISCIS
Related business
Manufacturer
RKKE
Mission
Spacecraft
Bus & Motor
Unknown
Mass
Unknown
Launch date (UTC)
2007-10-26 (18 years ago)
Launch vehicle
Unknown
Launch site
Tyuratam Missile And Space Complex (TTMTR)
Object type
Payload
Rocket body
Debris
Shape & HBR
Unknown shape, 0.6 m
Radar Cross Section
Small (<0.1 m²)

Expand to show TLE details & history
Last TLE update: 1 day ago

TLE from 1 day ago
0 SL-12 DEB
1 41692U 07052Z   26035.88274038  .00000558  00000-0  14204-2 0  9993
2 41692  65.4337 271.4842 5601234 246.1811  47.0057  4.41860172 81953
Epoch: 2026-02-04T21:11Z
TLE epoch observation values (Epoch: 2026-02-04T21:11:08.768Z)
Latitude
-0.00007°
Longitude
178.66978°
Altitude
7,552.063 km
Speed
5.642 km/s
True Right ascension
18h 05m 59s
True Declination
0° 00' 00"
Sunlit
Object was in daylight at epoch
Visualization orbit readout
Latitude
Unknown
Longitude
Unknown
Altitude
Unknown
Speed
Unknown
Apparent Right ascension
Unknown
Apparent Declination
Unknown
Sunlit
N/A
Visualization observer readout
Local Sidereal Time
02:14:49
Azimuth
Unknown
Elevation
Unknown
Doppler factor
Unknown
Orbital elements
Apogee altitude
18,093.982 km
Perigee altitude
521.774 km
Semi-major axis
15,686.015 km
Eccentricity
0.56012
Inclination
65.4337°
RAAN
271.4842°
Arg. of periapsis
246.1811°
True anomaly
113.91225°
Mean anomaly
47.0057°
Eccentric anomaly
78.44836°
Mean motion
1.10478 °/min
Orbital period
325.86 mins
BSTAR
0.0014204
Loading maneuver chart data...
Computing Atmospheric mass density...
Loading historical data...
Loading historical data...
Loading historical data...
Loading historical data...
Loading historical data...
Loading historical data...
Loading historical data...

Documentation

Showing up to 5 results
|